Location: ??????????
(54.4061°N, 22.6114°E)
Time: 17:57:26
(UTC+00:00)

Cosmos 1356 - Pass Details

Date: 23 October 2019
Orbit: 447 x 449 km, 81.1° (Epoch: 14 November)

Event Time Altitude Azimuth Distance (km) Brightness Sun altitude
Rises 15:54:03 0° 180° (S) 2,440 7.3 -6.4°
Reaches altitude 10° 15:56:08 10° 175° (S) 1,574 6.2 -6.7°
Maximum altitude 15:59:28 51° 99° (E) 572 3.6 -7.2°
Drops below altitude 10° 16:02:51 10° 23° (NNE) 1,589 5.9 -7.7°
Sets 16:04:57 0° 18° (NNE) 2,467 6.9 -8.0°
